User: anonymous   Login
Location: Ash Swamp
(41.5170°N, 74.6157°W)
Time: 07:30:53
(UTC+00:00)
Language:

SAR-Lupe-2 - Orbit

View from above orbital plane
View from above orbital plane
View from above satellite
View from above satellite

Ground track
Ground track

The orbit data is extracted from the following two-line orbital elements,

1 31797U 07030A   20237.86279530 0.00000550  00000-0  20439-4 0    06
2 31797  98.1216 112.6221 0001561   9.9329 350.0670 15.27571890    02
Epoch (UTC): 24 August 2020 20:42:25
Eccentricity: 0.0001561
inclination: 98.1216°
perigee height: 482 km
apogee height: 484 km
right ascension of ascending node: 112.6221°
argument of perigee: 9.9329°
revolutions per day: 15.27571890
mean anomaly at epoch: 350.0670°
orbit number at epoch: 0

The dashed part of the orbit path shows where the satellite is in the earth's shadow,  

DLR